User: anonymous   Login
Location: Dulzura
(32.6442°N, 116.7814°W)
Time: 02:51:52
(UTC+00:00)
Language:

YUBILEINY - Orbit

View from above orbital plane
View from above orbital plane
View from above satellite
View from above satellite

Ground track
Ground track

The orbit data is extracted from the following two-line orbital elements,

1 32953U 08025A   24107.90638964  .00000049  00000-0  28315-3 0  9991
2 32953  82.4989 127.6073 0018309 236.2889 123.6446 12.43138825721372
Epoch (UTC): 16 April 2024 21:45:12
Eccentricity: 0.0018309
inclination: 82.4989°
perigee height: 1479 km
apogee height: 1508 km
right ascension of ascending node: 127.6073°
argument of perigee: 236.2889°
revolutions per day: 12.43138825
mean anomaly at epoch: 123.6446°
orbit number at epoch: 72137

The dashed part of the orbit path shows where the satellite is in the earth's shadow,  

DLR